This is the latest recevied weather packets stored in our database for station/object OH2HCY. If no packets are shown the sender has not sent any weather packets the latest 10 day(s).
| Time | Temp. | Humidity | Pressure | Rain* | Wind** | Luminosity | Snow |
|---|---|---|---|---|---|---|---|
| 1777319640 | 2.78° C | 61% | 1015.1 hPa | - | - | - | - |
| 1777319131 | 2.78° C | 61% | 1015.3 hPa | - | - | - | - |
| 1777318630 | 2.78° C | 61% | 1015.1 hPa | - | - | - | - |
| 1777318075 | 2.78° C | 61% | 1015 hPa | - | - | - | - |
| 1777317555 | 2.78° C | 62% | 1015 hPa | - | - | - | - |
| 1777316995 | 2.78° C | 63% | 1015.1 hPa | - | - | - | - |
| 1777316475 | 2.78° C | 64% | 1015.1 hPa | - | - | - | - |
| 1777315970 | 2.78° C | 65% | 1015 hPa | - | - | - | - |
| 1777315430 | 2.78° C | 66% | 1014.9 hPa | - | - | - | - |
| 1777314920 | 2.78° C | 67% | 1014.9 hPa | - | - | - | - |
| 1777314357 | 2.78° C | 67% | 1014.9 hPa | - | - | - | - |
| 1777313810 | 2.78° C | 69% | 1015 hPa | - | - | - | - |
| 1777313310 | 2.78° C | 70% | 1015.1 hPa | - | - | - | - |
| 1777312790 | 2.78° C | 69% | 1015 hPa | - | - | - | - |
| 1777312280 | 3.89° C | 67% | 1014.5 hPa | - | - | - | - |
| 1777311793 | 4.44° C | 53% | 1014.3 hPa | - | - | - | - |
| 1777311255 | 4.44° C | 53% | 1014.2 hPa | - | - | - | - |
| 1777310730 | 4.44° C | 52% | 1014.1 hPa | - | - | - | - |
| 1777310170 | 4.44° C | 52% | 1014 hPa | - | - | - | - |
| 1777309615 | 4.44° C | 51% | 1013.9 hPa | - | - | - | - |
| 1777309050 | 4.44° C | 52% | 1013.8 hPa | - | - | - | - |
| 1777308510 | 4.44° C | 51% | 1013.7 hPa | - | - | - | - |
| 1777307995 | 5° C | 50% | 1013.5 hPa | - | - | - | - |
| 1777307475 | 5.56° C | 47% | 1013 hPa | - | - | - | - |
* Rain since midnight (hover to see other rain measurements)
** Current wind speed in m/s (hover to see current wind gust speed)